Find Starlink 11264

NORAD ID: 60906 Int'l Des: 2024-154 Owner: SPXS Country: US Constellation: starlink operational
又名: STARLINK-11264 [DTC] celestrak
LEOCIRCULAR

当前视图

正在加载3D地球...

About Starlink 11264

Starlink 11264 (NORAD 60906) is a starlink constellation satellite (v2 mini d2c) launched Aug 31, 2024 by SPXS of US. It operates in LEO, CIRCULAR orbit with a mass of 960.00 kg.

即将过境

Passes for default location (London). Set your location on the main map for personalized predictions.

高度历史

Loading altitude history...

两行轨道根数

1 60906U 24154D 26227.94381350 .00000373 00000-0 79381-5 0 9995
2 60906 53.1590 66.4514 0000975 86.2761 273.8368 15.69707583113523
Epoch: Aug 15, 2026 • Age: 22 hours

当前状态

高度 363.1 km
远地点 / 近地点 N/A
速度 7.70 km/s
星下点 41.80°N, 165.7°W
发射日期 Aug 31, 2024
运行时间 1.9 years
类型 internet

技术详情

分类 Payload
质量 960.00 kg
干质量 910.00 kg
总质量 960.00 kg
长度 0.30 m
直径 4.10 m
跨度 29.00 m
形状 Box + pan
制造商 SPXS
平台类型 Starlink V2MD
阶段状态 In Orbit
所有者/国家 SPXS/US

Most Searched